Time,TemperatureF,DewpointF,PressureIn,WindDirection,WindDirectionDegrees,WindSpeedMPH,WindSpeedGustMPH,Humidity,HourlyPrecipIn,Conditions,Clouds,dailyrainin,SoftwareType,DateUTC
2013-01-12 00:29:00,46.8,41.0,29.65,SE,146,14.0,-999.0,81,-99.99,,,0.03,weatherlink.com 1.10,2013-01-12 00:29:00,
2013-01-12 00:44:00,45.9,41.0,29.64,SSW,192,13.0,-999.0,83,-99.99,,,0.05,weatherlink.com 1.10,2013-01-12 00:44:00,
2013-01-12 00:59:00,45.2,40.0,29.63,SE,134,7.0,-999.0,83,-99.99,,,0.06,weatherlink.com 1.10,2013-01-12 00:59:00,
2013-01-12 01:14:00,45.3,40.0,29.62,SE,134,7.0,-999.0,83,-99.99,,,0.07,weatherlink.com 1.10,2013-01-12 01:14:00,
2013-01-12 01:29:00,45.7,41.0,29.60,SE,128,14.0,-999.0,83,-99.99,,,0.09,weatherlink.com 1.10,2013-01-12 01:29:00,
2013-01-12 01:44:00,46.2,42.0,29.59,ESE,113,19.0,-999.0,85,-99.99,,,0.10,weatherlink.com 1.10,2013-01-12 01:44:00,
2013-01-12 01:59:00,46.4,42.0,29.58,SE,135,16.0,-999.0,84,-99.99,,,0.12,weatherlink.com 1.10,2013-01-12 01:59:00,
2013-01-12 02:14:00,46.6,42.0,29.57,SE,130,15.0,-999.0,84,-99.99,,,0.13,weatherlink.com 1.10,2013-01-12 02:14:00,
2013-01-12 02:29:00,46.4,42.0,29.55,SE,128,12.0,-999.0,85,-99.99,,,0.15,weatherlink.com 1.10,2013-01-12 02:29:00,
2013-01-12 02:44:00,46.9,43.0,29.54,SSE,155,11.0,-999.0,86,-99.99,,,0.16,weatherlink.com 1.10,2013-01-12 02:44:00,
2013-01-12 02:59:00,47.0,43.0,29.53,South,169,6.0,-999.0,86,-99.99,,,0.17,weatherlink.com 1.10,2013-01-12 02:59:00,
2013-01-12 03:14:00,46.7,43.0,29.52,South,170,2.0,-999.0,85,-99.99,,,0.18,weatherlink.com 1.10,2013-01-12 03:14:00,
2013-01-12 03:29:00,46.2,42.0,29.52,South,184,4.0,-999.0,85,-99.99,,,0.18,weatherlink.com 1.10,2013-01-12 03:29:00,
2013-01-12 03:44:00,46.6,42.0,29.52,South,182,5.0,-999.0,85,-99.99,,,0.18,weatherlink.com 1.10,2013-01-12 03:44:00,
2013-01-12 04:00:00,46.4,42.0,29.51,South,181,11.0,-999.0,84,-99.99,,,0.18,weatherlink.com 1.10,2013-01-12 04:00:00,
2013-01-12 04:14:00,45.9,41.0,29.51,South,178,4.0,-999.0,84,-99.99,,,0.18,weatherlink.com 1.10,2013-01-12 04:14:00,
2013-01-12 04:29:00,46.0,41.0,29.50,South,180,6.0,-999.0,84,-99.99,,,0.18,weatherlink.com 1.10,2013-01-12 04:29:00,
2013-01-12 04:44:00,45.8,41.0,29.50,SSW,207,10.0,-999.0,84,-99.99,,,0.18,weatherlink.com 1.10,2013-01-12 04:44:00,
2013-01-12 04:59:00,45.4,41.0,29.50,SSW,205,4.0,-999.0,84,-99.99,,,0.18,weatherlink.com 1.10,2013-01-12 04:59:00,
2013-01-12 05:14:00,45.1,41.0,29.49,SSW,205,0.0,-999.0,85,-99.99,,,0.18,weatherlink.com 1.10,2013-01-12 05:14:00,
2013-01-12 05:29:00,44.8,41.0,29.49,SSW,205,0.0,-999.0,85,-99.99,,,0.18,weatherlink.com 1.10,2013-01-12 05:29:00,
2013-01-12 05:44:00,44.7,41.0,29.49,SSW,205,2.0,-999.0,85,-99.99,,,0.18,weatherlink.com 1.10,2013-01-12 05:44:00,
2013-01-12 05:59:00,44.5,40.0,29.49,SSW,205,0.0,-999.0,85,-99.99,,,0.18,weatherlink.com 1.10,2013-01-12 05:59:00,
2013-01-12 06:14:00,44.3,40.0,29.48,SSW,205,0.0,-999.0,85,-99.99,,,0.18,weatherlink.com 1.10,2013-01-12 06:14:00,
2013-01-12 06:29:00,44.2,40.0,29.48,SSW,205,0.0,-999.0,86,-99.99,,,0.18,weatherlink.com 1.10,2013-01-12 06:29:00,
2013-01-12 06:44:00,44.3,40.0,29.48,SSW,205,0.0,-999.0,86,-99.99,,,0.18,weatherlink.com 1.10,2013-01-12 06:44:00,
2013-01-12 07:00:00,44.1,40.0,29.48,SSW,205,0.0,-999.0,86,-99.99,,,0.19,weatherlink.com 1.10,2013-01-12 07:00:00,
2013-01-12 07:14:00,44.3,40.0,29.48,SSW,205,0.0,-999.0,86,-99.99,,,0.19,weatherlink.com 1.10,2013-01-12 07:14:00,
2013-01-12 07:30:00,43.9,40.0,29.48,SSW,205,0.0,-999.0,86,-99.99,,,0.19,weatherlink.com 1.10,2013-01-12 07:30:00,
2013-01-12 07:45:00,43.8,40.0,29.48,SSW,205,0.0,-999.0,86,-99.99,,,0.19,weatherlink.com 1.10,2013-01-12 07:45:00,
2013-01-12 08:00:00,44.1,41.0,29.48,SSW,205,0.0,-999.0,87,-99.99,,,0.20,weatherlink.com 1.10,2013-01-12 08:00:00,
2013-01-12 08:15:00,44.0,40.0,29.48,SSW,205,0.0,-999.0,86,-99.99,,,0.20,weatherlink.com 1.10,2013-01-12 08:15:00,
2013-01-12 08:30:00,43.8,40.0,29.48,SSW,205,0.0,-999.0,86,-99.99,,,0.20,weatherlink.com 1.10,2013-01-12 08:30:00,
2013-01-12 08:45:00,43.7,40.0,29.48,SSW,205,2.0,-999.0,87,-99.99,,,0.20,weatherlink.com 1.10,2013-01-12 08:45:00,
2013-01-12 09:00:00,43.5,40.0,29.48,SSW,207,5.0,-999.0,87,-99.99,,,0.20,weatherlink.com 1.10,2013-01-12 09:00:00,
2013-01-12 09:15:00,43.4,40.0,29.48,West,259,4.0,-999.0,87,-99.99,,,0.20,weatherlink.com 1.10,2013-01-12 09:15:00,
2013-01-12 09:30:00,43.7,40.0,29.48,West,273,4.0,-999.0,87,-99.99,,,0.20,weatherlink.com 1.10,2013-01-12 09:30:00,
2013-01-12 09:45:00,44.2,41.0,29.49,West,273,1.0,-999.0,87,-99.99,,,0.20,weatherlink.com 1.10,2013-01-12 09:45:00,
2013-01-12 10:00:00,44.5,41.0,29.49,West,273,2.0,-999.0,87,-99.99,,,0.20,weatherlink.com 1.10,2013-01-12 10:00:00,
2013-01-12 10:15:00,44.6,41.0,29.49,West,273,1.0,-999.0,87,-99.99,,,0.20,weatherlink.com 1.10,2013-01-12 10:15:00,
2013-01-12 10:30:00,44.5,41.0,29.49,West,273,0.0,-999.0,87,-99.99,,,0.20,weatherlink.com 1.10,2013-01-12 10:30:00,
2013-01-12 10:45:00,44.6,41.0,29.49,West,273,1.0,-999.0,87,-99.99,,,0.20,weatherlink.com 1.10,2013-01-12 10:45:00,
2013-01-12 11:00:00,44.7,41.0,29.49,West,273,3.0,-999.0,87,-99.99,,,0.20,weatherlink.com 1.10,2013-01-12 11:00:00,
2013-01-12 11:14:00,44.9,41.0,29.49,West,278,6.0,-999.0,87,-99.99,,,0.20,weatherlink.com 1.10,2013-01-12 11:14:00,
2013-01-12 11:30:00,44.8,41.0,29.49,WNW,284,3.0,-999.0,87,-99.99,,,0.20,weatherlink.com 1.10,2013-01-12 11:30:00,
2013-01-12 11:45:00,44.7,41.0,29.49,WNW,286,3.0,-999.0,86,-99.99,,,0.20,weatherlink.com 1.10,2013-01-12 11:45:00,
2013-01-12 12:00:00,44.6,41.0,29.49,WNW,286,3.0,-999.0,86,-99.99,,,0.20,weatherlink.com 1.10,2013-01-12 12:00:00,
2013-01-12 12:15:00,44.7,41.0,29.48,WNW,287,6.0,-999.0,86,-99.99,,,0.20,weatherlink.com 1.10,2013-01-12 12:15:00,
2013-01-12 12:30:00,44.9,41.0,29.49,WNW,286,6.0,-999.0,86,-99.99,,,0.20,weatherlink.com 1.10,2013-01-12 12:30:00,
2013-01-12 12:45:00,45.1,41.0,29.49,WNW,284,6.0,-999.0,86,-99.99,,,0.20,weatherlink.com 1.10,2013-01-12 12:45:00,
2013-01-12 13:00:00,45.8,42.0,29.48,WNW,284,3.0,-999.0,87,-99.99,,,0.20,weatherlink.com 1.10,2013-01-12 13:00:00,
2013-01-12 13:15:00,46.4,43.0,29.49,WNW,284,3.0,-999.0,86,-99.99,,,0.20,weatherlink.com 1.10,2013-01-12 13:15:00,
2013-01-12 13:30:00,46.1,42.0,29.49,West,279,6.0,-999.0,85,-99.99,,,0.20,weatherlink.com 1.10,2013-01-12 13:30:00,
2013-01-12 13:45:00,46.0,42.0,29.50,West,279,3.0,-999.0,85,-99.99,,,0.20,weatherlink.com 1.10,2013-01-12 13:45:00,
2013-01-12 14:00:00,46.6,42.0,29.50,WNW,282,5.0,-999.0,84,-99.99,,,0.20,weatherlink.com 1.10,2013-01-12 14:00:00,
2013-01-12 14:15:00,47.0,42.0,29.50,West,281,4.0,-999.0,83,-99.99,,,0.20,weatherlink.com 1.10,2013-01-12 14:15:00,
2013-01-12 14:30:00,47.1,42.0,29.51,West,281,5.0,-999.0,82,-99.99,,,0.20,weatherlink.com 1.10,2013-01-12 14:30:00,
2013-01-12 14:45:00,46.3,41.0,29.51,West,281,2.0,-999.0,82,-99.99,,,0.20,weatherlink.com 1.10,2013-01-12 14:45:00,
2013-01-12 15:00:00,46.1,41.0,29.52,West,281,3.0,-999.0,83,-99.99,,,0.20,weatherlink.com 1.10,2013-01-12 15:00:00,
2013-01-12 15:14:00,46.0,41.0,29.52,West,279,5.0,-999.0,84,-99.99,,,0.20,weatherlink.com 1.10,2013-01-12 15:14:00,
2013-01-12 15:30:00,46.1,42.0,29.53,West,273,3.0,-999.0,84,-99.99,,,0.20,weatherlink.com 1.10,2013-01-12 15:30:00,
2013-01-12 15:45:00,46.4,42.0,29.54,West,271,3.0,-999.0,84,-99.99,,,0.20,weatherlink.com 1.10,2013-01-12 15:45:00,
2013-01-12 16:00:00,46.4,42.0,29.54,West,271,5.0,-999.0,84,-99.99,,,0.20,weatherlink.com 1.10,2013-01-12 16:00:00,
2013-01-12 16:15:00,46.3,42.0,29.54,West,271,0.0,-999.0,84,-99.99,,,0.00,weatherlink.com 1.10,2013-01-12 16:15:00,
2013-01-12 16:30:00,46.0,41.0,29.55,West,271,0.0,-999.0,84,-99.99,,,0.00,weatherlink.com 1.10,2013-01-12 16:30:00,
2013-01-12 16:45:00,45.7,41.0,29.56,West,271,4.0,-999.0,84,-99.99,,,0.00,weatherlink.com 1.10,2013-01-12 16:45:00,
2013-01-12 17:00:00,45.7,41.0,29.57,West,271,1.0,-999.0,84,-99.99,,,0.00,weatherlink.com 1.10,2013-01-12 17:00:00,
2013-01-12 17:15:00,45.7,41.0,29.57,West,271,3.0,-999.0,84,-99.99,,,0.00,weatherlink.com 1.10,2013-01-12 17:15:00,
2013-01-12 17:30:00,45.7,42.0,29.58,West,271,0.0,-999.0,85,-99.99,,,0.00,weatherlink.com 1.10,2013-01-12 17:30:00,
2013-01-12 17:45:00,45.5,41.0,29.59,West,271,0.0,-999.0,85,-99.99,,,0.00,weatherlink.com 1.10,2013-01-12 17:45:00,
2013-01-12 18:00:00,45.2,41.0,29.60,West,271,4.0,-999.0,85,-99.99,,,0.00,weatherlink.com 1.10,2013-01-12 18:00:00,
2013-01-12 18:15:00,45.1,41.0,29.60,West,271,0.0,-999.0,85,-99.99,,,0.00,weatherlink.com 1.10,2013-01-12 18:15:00,
2013-01-12 18:30:00,44.8,41.0,29.61,West,271,0.0,-999.0,85,-99.99,,,0.00,weatherlink.com 1.10,2013-01-12 18:30:00,
2013-01-12 18:45:00,44.3,40.0,29.62,West,271,0.0,-999.0,84,-99.99,,,0.00,weatherlink.com 1.10,2013-01-12 18:45:00,
2013-01-12 19:00:00,44.1,40.0,29.62,West,271,0.0,-999.0,85,-99.99,,,0.00,weatherlink.com 1.10,2013-01-12 19:00:00,
2013-01-12 19:14:00,44.3,40.0,29.64,West,271,0.0,-999.0,86,-99.99,,,0.00,weatherlink.com 1.10,2013-01-12 19:14:00,
2013-01-12 19:30:00,44.5,41.0,29.64,West,271,0.0,-999.0,86,-99.99,,,0.00,weatherlink.com 1.10,2013-01-12 19:30:00,
2013-01-12 19:45:00,44.8,41.0,29.65,West,271,1.0,-999.0,86,-99.99,,,0.00,weatherlink.com 1.10,2013-01-12 19:45:00,
2013-01-12 20:00:00,45.9,42.0,29.66,West,271,7.0,-999.0,85,-99.99,,,0.00,weatherlink.com 1.10,2013-01-12 20:00:00,
2013-01-12 20:15:00,46.3,42.0,29.67,SW,215,2.0,-999.0,84,-99.99,,,0.00,weatherlink.com 1.10,2013-01-12 20:15:00,
2013-01-12 20:30:00,46.3,42.0,29.67,SW,215,0.0,-999.0,84,-99.99,,,0.00,weatherlink.com 1.10,2013-01-12 20:30:00,
2013-01-12 20:45:00,46.3,41.0,29.68,SE,140,7.0,-999.0,83,-99.99,,,0.00,weatherlink.com 1.10,2013-01-12 20:45:00,
2013-01-12 21:00:00,45.4,41.0,29.70,ESE,121,6.0,-999.0,83,-99.99,,,0.00,weatherlink.com 1.10,2013-01-12 21:00:00,
2013-01-12 21:15:00,45.8,41.0,29.71,ESE,121,1.0,-999.0,83,-99.99,,,0.00,weatherlink.com 1.10,2013-01-12 21:15:00,
2013-01-12 21:30:00,46.4,41.0,29.72,East,101,4.0,-999.0,82,-99.99,,,0.00,weatherlink.com 1.10,2013-01-12 21:30:00,
2013-01-12 21:45:00,46.4,41.0,29.73,SE,142,3.0,-999.0,82,-99.99,,,0.00,weatherlink.com 1.10,2013-01-12 21:45:00,
2013-01-12 22:00:00,46.5,41.0,29.75,SE,136,9.0,-999.0,81,-99.99,,,0.00,weatherlink.com 1.10,2013-01-12 22:00:00,
2013-01-12 22:15:00,45.9,40.0,29.76,East,95,7.0,-999.0,81,-99.99,,,0.01,weatherlink.com 1.10,2013-01-12 22:15:00,
2013-01-12 22:30:00,45.3,40.0,29.77,SE,131,3.0,-999.0,82,-99.99,,,0.02,weatherlink.com 1.10,2013-01-12 22:30:00,
2013-01-12 22:45:00,45.4,41.0,29.78,SE,131,4.0,-999.0,83,-99.99,,,0.02,weatherlink.com 1.10,2013-01-12 22:45:00,
2013-01-12 23:00:00,45.4,41.0,29.79,East,80,17.0,-999.0,84,-99.99,,,0.02,weatherlink.com 1.10,2013-01-12 23:00:00,
2013-01-12 23:14:00,44.7,40.0,29.80,East,88,12.0,-999.0,84,-99.99,,,0.02,weatherlink.com 1.10,2013-01-12 23:14:00,
2013-01-12 23:30:00,44.3,40.0,29.81,East,82,13.0,-999.0,84,-99.99,,,0.02,weatherlink.com 1.10,2013-01-12 23:30:00,
2013-01-12 23:45:00,44.4,40.0,29.82,East,85,10.0,-999.0,85,-99.99,,,0.02,weatherlink.com 1.10,2013-01-12 23:45:00,